EW5463 Weather Reports


time (UTC)temp
C
wind
direction
speed
KPH
gust
KPH
rain 1hr
cm
rain 24hr
cm
rain mn
cm
humidity
%
barometer
mb
20260506150049 23 270 0.0 6.4 0.00 0.00 0.00 72 1015.5
20260506144551 22 270 1.6 4.8 0.00 0.00 0.00 72 1015.5
20260506143046 21 0 1.6 4.8 0.00 0.00 0.00 75 1015.6
20260506141547 21 0 1.6 6.4 0.00 0.00 0.00 76 1015.5
20260506140043 21 270 0.0 6.4 0.00 0.00 0.00 77 1015.5
20260506134548 20 0 0.0 4.8 0.00 0.00 0.00 78 1015.6
20260506133048 20 0 0.0 6.4 0.00 0.00 0.00 80 1015.5
20260506131557 20 0 1.6 8.0 0.00 0.00 0.00 81 1015.4
20260506130054 20 270 1.6 8.0 0.00 0.00 0.00 82 1015.5
20260506124543 19 270 1.6 8.0 0.00 0.00 0.00 82 1015.2
20260506123043 19 270 1.6 6.4 0.00 0.00 0.00 83 1015.0
20260506121545 18 270 1.6 4.8 0.00 0.00 0.00 83 1015.0
20260506120050 18 270 1.6 6.4 0.00 0.00 0.00 83 1014.9
20260506114545 18 270 0.0 3.2 0.00 0.00 0.00 84 1014.8
20260506113049 17 270 1.6 4.8 0.00 0.00 0.00 85 1014.6
20260506111543 17 270 0.0 3.2 0.00 0.00 0.00 85 1014.5
20260506110042 17 0 0.0 0.0 0.00 0.00 0.00 84 1014.6
20260506104546 17 0 0.0 0.0 0.00 0.00 0.00 83 1014.5
20260506103041 17 0 0.0 0.0 0.00 0.00 0.00 82 1014.4
20260506101545 17 0 0.0 0.0 0.00 0.00 0.00 81 1014.3
20260506100042 18 0 0.0 0.0 0.00 0.00 0.00 80 1014.4
20260506094554 18 0 0.0 4.8 0.00 0.00 0.00 79 1014.4
20260506093040 18 0 0.0 0.0 0.00 0.00 0.00 79 1014.5
20260506091540 18 0 0.0 4.8 0.00 0.00 0.00 78 1014.5
20260506090045 18 0 1.6 6.4 0.00 0.00 0.00 77 1014.7
20260506084545 18 0 0.0 0.0 0.00 0.00 0.00 77 1014.9
20260506083042 18 0 0.0 0.0 0.00 0.00 0.00 77 1014.9
20260506081545 18 0 0.0 0.0 0.00 0.00 0.00 78 1014.7
20260506073043 18 0 0.0 0.0 0.00 0.00 0.00 77 1014.7
20260506071545 18 0 0.0 0.0 0.00 0.00 0.00 76 1014.6
20260506061545 18 0 0.0 0.0 0.00 0.00 0.00 74 1015.1
20260506044547 20 270 1.6 6.4 0.00 0.00 0.00 69 1015.6
20260506043043 20 270 1.6 6.4 0.00 0.00 0.00 68 1015.7
20260506041541 20 270 1.6 6.4 0.00 0.00 0.00 68 1015.9
20260506040049 20 270 3.2 8.0 0.00 0.00 0.00 68 1015.8
20260506034543 20 270 3.2 8.0 0.00 0.00 0.00 68 1015.7
20260506033043 20 270 4.8 14.5 0.00 0.00 0.00 67 1015.6
20260506031550 20 270 4.8 9.7 0.00 0.00 0.00 67 1015.8
20260506030044 21 270 4.8 8.0 0.00 0.00 0.00 66 1016.1
20260506024553 21 270 4.8 8.0 0.00 0.00 0.00 65 1016.2
20260506023044 21 270 3.2 9.7 0.00 0.00 0.00 64 1016.5
20260506021542 21 270 4.8 9.7 0.00 0.00 0.00 62 1016.0
20260506020045 22 270 4.8 9.7 0.00 0.00 0.00 60 1015.6
20260506014544 22 270 4.8 9.7 0.00 0.00 0.00 58 1015.3
20260506013043 22 270 4.8 12.9 0.00 0.00 0.00 55 1015.1
20260506011544 23 270 4.8 9.7 0.00 0.00 0.00 55 1014.9
20260506010048 23 270 6.4 12.9 0.00 0.00 0.00 54 1014.7
20260506004543 23 270 4.8 12.9 0.00 0.00 0.00 53 1014.4
20260506003042 24 270 4.8 8.0 0.00 0.00 0.00 52 1014.2
20260506001542 25 270 4.8 8.0 0.00 0.00 0.00 50 1014.1
20260506000042 25 270 6.4 9.7 0.00 0.00 0.00 47 1014.1
20260505234550 26 270 3.2 6.4 0.00 0.00 0.00 45 1014.0
20260505233042 26 270 1.6 6.4 0.00 0.00 0.00 43 1014.0
20260505231552 26 270 1.6 8.0 0.00 0.00 0.00 41 1013.8
20260505230053 26 270 3.2 9.7 0.00 0.00 0.00 41 1013.9
20260505224547 27 270 3.2 8.0 0.00 0.00 0.00 41 1014.0
20260505223053 27 270 4.8 8.0 0.00 0.00 0.00 39 1014.2
20260505221549 27 270 1.6 6.4 0.00 0.00 0.00 37 1014.3
20260505220046 27 270 3.2 17.7 0.00 0.00 0.00 38 1014.1
20260505214544 27 270 3.2 12.9 0.00 0.00 0.00 37 1014.3
20260505213056 27 270 4.8 14.5 0.00 0.00 0.00 39 1014.2
20260505211548 27 270 3.2 9.7 0.00 0.00 0.00 38 1014.2
20260505210043 28 270 1.6 6.4 0.00 0.00 0.00 38 1014.6
20260505204542 28 270 3.2 12.9 0.00 0.00 0.00 39 1014.6
20260505203046 28 270 8.0 16.1 0.00 0.00 0.00 39 1014.6
20260505201548 28 270 3.2 8.0 0.00 0.00 0.00 35 1014.7
20260505200052 28 270 3.2 9.7 0.00 0.00 0.00 36 1014.9
20260505194546 28 270 1.6 17.7 0.00 0.00 0.00 38 1015.1
20260505193043 28 270 4.8 16.1 0.00 0.00 0.00 37 1015.3
20260505191606 28 270 4.8 12.9 0.00 0.00 0.00 37 1015.7
20260505190049 29 270 4.8 12.9 0.00 0.00 0.00 36 1015.6
20260505184551 29 270 3.2 8.0 0.00 0.00 0.00 37 1015.7
20260505183043 30 270 1.6 16.1 0.00 0.00 0.00 35 1015.9
20260505181542 29 270 6.4 14.5 0.00 0.00 0.00 36 1016.0
20260505180059 30 270 6.4 14.5 0.00 0.00 0.00 36 1016.0
20260505174554 28 270 3.2 12.9 0.00 0.00 0.00 38 1016.1
20260505173041 28 270 6.4 14.5 0.00 0.00 0.00 35 1016.2
20260505171548 28 270 1.6 14.5 0.00 0.00 0.00 40 1016.2
20260505170043 28 270 3.2 9.7 0.00 0.00 0.00 41 1016.7
20260505164543 27 270 3.2 12.9 0.00 0.00 0.00 43 1017.0
20260505163040 26 270 4.8 12.9 0.00 0.00 0.00 47 1017.1
20260505161540 26 270 3.2 12.9 0.00 0.00 0.00 48 1017.3
20260505153042 25 270 3.2 8.0 0.00 0.00 0.00 53 1017.4
20260505151543 25 270 1.6 6.4 0.00 0.00 0.00 53 1017.5